This is the latest recevied weather packets stored in our database for station/object AA3CS-1. If no packets are shown the sender has not sent any weather packets the latest 10 day(s).
| Time | Temp. | Humidity | Pressure | Rain* | Wind** | Luminosity | Snow |
|---|---|---|---|---|---|---|---|
| 1777399517 | 20° C | 69% | 1012.8 hPa | 0 mm | - | 409 W/m² | - |
| 1777398937 | 20° C | 69% | 1012.9 hPa | 0 mm | - | 741 W/m² | - |
| 1777398637 | 19.44° C | 68% | 1012.9 hPa | 0 mm | - | 416 W/m² | - |
| 1777398017 | 19.44° C | 72% | 1012.9 hPa | 0 mm | - | 285 W/m² | - |
| 1777397717 | 19.44° C | 70% | 1013 hPa | 0 mm | - | 252 W/m² | - |
| 1777395917 | 18.89° C | 72% | 1012.9 hPa | 0 mm | - | 392 W/m² | - |
| 1777394717 | 18.33° C | 76% | 1013 hPa | 0 mm | - | 719 W/m² | - |
| 1777390517 | 15.56° C | 84% | 1013.1 hPa | 0 mm | - | 215 W/m² | - |
| 1777389037 | 15.56° C | 82% | 1012.9 hPa | 0 mm | - | 207 W/m² | - |
| 1777387517 | 14.44° C | 83% | 1012.9 hPa | 0 mm | - | 222 W/m² | - |
| 1777385737 | 13.89° C | 84% | 1012.7 hPa | 0 mm | - | 130 W/m² | - |
| 1777385116 | 13.89° C | 84% | 1012.6 hPa | 0 mm | - | 208 W/m² | - |
| 1777383617 | 13.33° C | 85% | 1012.5 hPa | 0 mm | - | 180 W/m² | - |
| 1777383317 | 12.78° C | 85% | 1012.5 hPa | 0 mm | - | 127 W/m² | - |
| 1777381857 | 12.78° C | 86% | 1012.3 hPa | 0 mm | - | 120 W/m² | - |
| 1777378817 | 12.78° C | 86% | 1012.1 hPa | 0 mm | - | 44 W/m² | - |
| 1777378516 | 12.78° C | 86% | 1012 hPa | 0 mm | - | 48 W/m² | - |
| 1777377916 | 12.78° C | 85% | 1012.2 hPa | 0 mm | - | 47 W/m² | - |
| 1777375516 | 12.22° C | 87% | 1012.1 hPa | 0 mm | - | 19 W/m² | - |
| 1777374916 | 12.22° C | 88% | 1012 hPa | 0 mm | - | 15 W/m² | - |
| 1777373736 | 12.22° C | 88% | 1011.6 hPa | 0 mm | - | 0 W/m² | - |
| 1777373416 | 12.22° C | 88% | 1011.4 hPa | 0 mm | - | 0 W/m² | - |
| 1777373116 | 12.22° C | 88% | 1011.2 hPa | 0 mm | - | 0 W/m² | - |
| 1777372516 | 12.22° C | 88% | 1011.2 hPa | 0 mm | - | 0 W/m² | - |
| 1777370136 | 12.78° C | 88% | 1009.8 hPa | 0 mm | - | 0 W/m² | - |
* Rain latest hour (hover to see other rain measurements)
** Current wind speed in m/s (hover to see current wind gust speed)